Track ONEWEB-0195 now! 10-day predictions ONEWEB-0195 is classified as:
1 48240U 21031AG 22136.54227556 .00000287 00000-0 74039-3 0 9998 2 48240 87.9043 226.3256 0001474 118.2197 241.9081 13.14501774 52052